Temperature
18 18 18 18 18 18 18 18 18 17 17 17 16 16 16 16 15 15 15 15 15 15 15 15 15 15 15 15 15 15 15 15 15 15 15 16 16 16 16 17 17 17 17
19 19 19 18 18 18 18 18 17 17 17 16 16 15 15 15 14 14 14 14 14 14 14 14 15 15 15 15 15 15 15 15 15 15 15 15 16 16 17 17 17 17 17
19 19 19 19 18 18 18 18 17 17 16 16 15 15 15 14 14 14 14 14 14 14 14 14 14 14 14 14 14 15 15 15 15 15 15 15 16 17 17 17 17 18 17
20 20 19 19 19 18 18 18 17 17 16 16 15 15 14 13 13 13 13 13 13 13 13 14 14 14 14 14 14 14 14 14 15 15 15 15 15 15 16 17 17 17 17
20 20 20 19 19 18 18 17 17 16 16 15 15 14 13 13 12 12 12 12 12 12 13 13 13 13 14 14 14 14 14 14 14 15 15 15 15 15 15 16 17 17 17
20 20 20 19 19 18 18 17 17 16 15 14 14 13 13 12 12 11 11 11 12 12 12 12 12 13 13 13 13 13 13 14 14 14 14 14 14 15 15 16 16 17 17
20 20 20 19 19 18 17 17 16 15 15 14 13 13 12 12 11 11 11 11 11 11 11 11 12 12 12 12 12 12 13 13 13 13 14 14 14 14 15 15 15 16 17
20 20 19 19 18 18 17 16 16 15 14 13 13 12 12 11 11 11 10 10 10 10 10 10 11 11 11 11 12 12 12 12 12 13 13 13 14 14 14 14 15 15 16
20 19 19 18 18 17 17 16 15 14 13 13 12 12 11 11 10 10 10 10 9 9 9 10 10 10 11 11 11 11 11 12 12 12 12 12 13 13 14 14 14 14 15
19 19 19 18 18 17 16 15 14 14 13 12 12 11 11 10 10 10 9 9 9 9 9 9 9 10 10 10 10 10 11 11 11 11 11 12 12 13 13 13 13 14 14
20 19 19 18 17 17 16 15 14 13 13 12 12 11 11 10 10 9 9 9 9 8 8 8 9 9 9 9 9 10 10 10 10 11 11 11 11 12 12 13 13 13 13
19 19 18 18 17 16 15 14 13 13 12 12 11 11 10 10 10 9 9 9 8 8 8 8 8 8 8 8 9 9 9 9 9 10 10 10 11 11 11 12 12 13 13
19 18 18 17 16 15 14 14 13 13 12 12 11 11 10 10 10 9 9 9 8 8 8 8 8 8 8 8 8 8 8 9 9 9 9 10 10 10 11 11 11 12 12
18 18 17 16 16 15 14 13 13 12 12 12 11 11 10 10 9 9 9 8 8 8 8 8 8 8 8 7 7 8 8 8 8 8 9 9 9 10 10 11 11 11 12
18 17 17 16 15 14 14 13 13 12 12 11 11 11 10 10 9 9 9 8 8 8 8 7 7 7 7 7 7 7 7 7 7 8 8 8 9 9 10 10 10 11 11
18 17 17 16 15 14 13 13 12 12 11 11 11 10 10 9 9 9 8 8 8 7 7 7 7 7 7 7 7 6 6 6 7 7 7 8 8 8 9 9 10 10 10
18 17 16 15 15 14 13 13 12 12 11 11 10 10 9 9 9 8 8 7 7 7 7 7 7 7 7 7 7 7 6 6 6 7 7 7 7 8 8 9 9 10 10
17 17 16 15 14 14 13 12 12 11 11 10 10 9 9 8 8 8 8 7 7 7 7 7 7 7 7 7 7 7 6 6 6 6 6 6 7 7 7 8 9 9 10
17 16 15 15 14 13 13 12 11 11 10 10 9 9 8 8 8 7 7 7 7 7 7 7 7 7 7 7 7 7 6 6 6 6 6 6 6 7 7 7 8 9 9
17 16 15 15 14 13 12 12 11 10 10 9 9 8 8 7 7 7 7 7 7 7 7 8 8 7 7 7 7 6 6 6 6 6 6 6 6 6 7 7 8 8 9
17 16 15 14 14 13 12 11 10 10 9 9 8 8 7 7 7 7 7 7 7 7 7 7 8 7 7 7 6 6 6 6 6 6 6 6 6 6 6 7 7 8 9
17 16 15 14 13 12 12 11 10 9 9 8 8 8 7 7 7 7 7 7 7 7 7 7 7 7 7 6 6 6 6 6 6 6 6 6 6 6 6 7 8 8 8
17 16 15 14 13 12 11 10 9 9 8 8 8 7 7 7 7 7 7 7 7 7 7 7 7 7 6 6 6 6 6 6 6 6 6 6 6 6 6 7 7 8 8
17 16 15 14 13 12 11 10 9 8 8 8 7 7 7 7 7 7 7 7 7 7 7 7 7 7 6 6 6 6 6 6 6 6 6 6 6 6 7 7 7 8 8
17 16 15 14 13 12 11 10 9 8 8 8 7 7 7 7 7 7 7 8 8 8 7 7 7 7 6 6 6 6 6 6 6 6 6 6 6 6 7 7 7 8 8
17 16 15 14 13 12 11 10 9 8 8 8 7 7 7 7 7 7 8 9 8 8 8 8 7 7 6 6 6 6 6 6 6 6 6 6 6 6 7 7 7 8 8
Wind_Speed
6 7 7 7 6 5 6 5 5 4 4 4 3 3 4 5 5 5 8 7 6 4 2 2 3 2 3 5 6 5 5 5 3 3 4 6 8 9 9 9 9 10 12
6 7 7 7 6 6 6 6 6 5 4 3 2 1 1 2 2 3 6 8 9 8 5 4 4 3 3 4 4 4 3 4 4 4 3 4 4 5 8 8 9 10 9
10 9 9 9 7 7 8 7 7 6 5 4 2 2 3 3 4 5 5 6 9 9 7 6 5 4 3 3 4 3 5 5 4 5 4 3 4 4 3 5 7 8 8
9 9 10 9 8 8 7 8 7 6 5 5 3 3 1 2 3 3 4 7 7 8 8 7 6 5 3 3 3 1 2 3 4 3 4 5 4 3 4 4 3 6 7
10 10 9 9 8 7 7 7 6 5 4 4 4 3 2 3 3 4 5 6 6 6 7 7 7 5 3 3 3 2 1 1 2 3 3 3 3 4 3 4 4 3 4
9 7 5 5 5 4 5 6 6 4 3 3 3 3 4 4 4 5 4 5 5 6 7 7 7 6 4 4 4 3 2 2 2 3 3 3 3 3 3 5 4 4 4
6 5 5 5 4 5 5 5 5 3 3 3 3 3 4 3 4 4 3 4 4 4 6 6 6 6 6 6 5 4 5 3 3 4 3 3 4 3 3 3 4 4 4
5 6 6 6 5 5 5 5 4 3 3 3 3 3 2 2 3 3 3 4 4 4 5 5 6 6 6 7 6 5 5 5 5 5 5 4 4 3 3 3 2 3 3
7 7 6 6 6 6 5 5 5 3 3 3 3 2 2 2 3 4 4 4 4 5 5 5 6 6 6 6 6 5 6 6 6 6 6 5 5 4 3 3 3 3 3
7 7 6 6 5 5 5 4 4 4 3 3 3 3 3 4 4 4 5 6 5 5 6 7 7 7 7 6 6 6 6 6 6 5 7 6 5 5 4 4 4 4 4
8 6 6 5 5 5 5 4 4 3 3 4 4 4 4 5 5 5 6 6 6 6 7 7 7 7 8 7 6 6 7 7 7 6 7 8 7 6 5 4 4 4 4
8 7 6 5 4 5 4 4 4 4 5 5 5 5 6 6 6 7 8 7 8 8 8 8 8 8 8 8 7 8 8 8 8 8 7 8 7 7 6 5 5 5 5
8 5 5 5 5 5 5 5 5 6 5 5 5 5 6 7 7 8 8 8 8 8 8 8 8 9 9 9 9 9 9 9 9 9 8 8 8 8 7 7 6 5 6
7 6 4 5 5 6 6 6 6 6 5 5 5 6 7 8 8 8 8 8 8 8 9 9 9 9 10 10 10 10 10 10 10 9 9 9 8 8 9 8 8 6 6
6 6 5 4 5 6 6 6 6 6 5 5 6 7 8 8 7 7 8 8 8 9 8 9 9 9 9 10 10 10 11 10 10 9 9 9 12 13 10 8 7 7 6
5 5 4 4 5 6 6 6 6 6 5 6 7 7 7 7 7 8 8 8 9 9 9 9 10 10 10 13 15 13 10 9 10 10 10 10 12 14 15 15 14 12 9
6 6 5 6 6 7 6 6 7 5 5 6 7 7 7 7 8 8 9 9 9 9 10 10 10 11 13 17 18 20 13 11 11 11 10 13 13 12 9 11 15 15 16
7 6 5 6 6 5 5 5 5 5 5 6 7 6 6 7 8 9 9 9 9 9 10 11 11 11 14 17 18 20 14 11 12 12 12 12 12 12 9 8 8 9 10
7 6 6 5 4 5 5 4 4 5 6 6 7 7 7 8 9 10 10 10 10 10 10 11 11 12 13 16 17 17 9 10 12 12 12 13 13 15 15 10 9 8 8
5 5 4 3 4 5 3 3 5 5 6 7 7 7 7 8 10 10 10 9 9 11 11 12 11 12 12 15 16 15 7 9 10 9 11 16 15 15 15 11 10 10 8
6 5 3 2 4 4 2 3 5 6 7 7 7 7 8 9 10 9 9 10 11 11 11 12 11 10 11 12 14 14 7 8 8 8 8 8 14 15 15 13 10 11 9
6 4 2 3 3 2 1 3 5 6 6 6 7 8 9 9 10 10 10 10 10 11 11 10 10 8 8 9 10 12 11 10 8 8 7 8 12 13 13 11 11 13 10
6 4 3 2 2 1 1 3 5 6 6 6 8 9 9 9 9 9 11 10 9 9 9 8 8 7 6 7 10 10 10 10 7 7 9 9 11 10 9 11 12 10 7
6 4 3 2 2 3 3 4 5 5 5 7 8 8 9 10 10 9 8 8 9 9 8 7 7 6 6 5 5 5 5 5 5 4 5 7 7 6 5 6 6 6 7
6 5 4 4 4 4 4 4 4 3 5 7 8 8 9 9 10 10 9 10 10 10 10 8 6 6 6 6 7 6 4 3 3 1 1 1 2 3 3 3 4 4 5
6 5 5 5 5 4 4 5 4 3 5 7 7 7 8 8 9 10 12 14 13 15 14 12 8 6 8 8 8 8 8 6 3 1 1 2 3 3 4 4 4 4 5
Wind_Direction
175 173 172 165 154 144 136 134 119 102 85 64 51 32 357 345 346 348 346 341 330 327 321 294 296 284 261 259 251 238 236 236 213 232 272 265 245 236 236 229 223 224 223
188 188 188 183 180 174 167 159 149 135 122 119 127 152 261 310 325 337 348 350 339 326 319 295 279 270 274 287 272 239 234 237 201 195 228 287 294 254 235 224 221 221 215
197 197 191 192 188 184 181 172 165 151 145 137 111 48 17 354 348 339 336 331 328 321 316 298 280 260 239 265 280 258 232 243 235 204 192 214 253 295 286 237 224 213 209
203 198 192 192 193 193 180 169 164 159 159 147 139 154 172 260 270 282 303 317 326 327 326 316 300 266 237 240 267 294 242 235 252 245 226 220 211 237 301 313 261 221 214
206 200 193 189 186 176 166 163 162 169 179 173 169 172 208 239 271 300 321 325 326 332 338 333 330 306 270 248 248 278 302 248 252 246 243 247 238 223 223 283 308 294 238
207 193 175 155 151 151 148 155 163 188 205 200 197 194 224 255 289 312 321 321 320 326 334 338 343 336 319 288 274 268 273 270 279 274 245 225 234 235 219 240 263 271 264
181 160 145 138 143 149 155 162 168 198 224 219 229 232 238 250 265 274 276 295 309 313 316 333 335 335 325 310 296 285 276 268 271 274 267 246 235 226 220 232 257 264 273
139 139 145 144 147 149 152 159 172 202 230 237 258 264 262 239 245 253 261 276 277 279 290 309 318 320 322 322 314 296 281 271 263 266 267 268 262 235 215 217 231 272 285
141 143 145 149 154 154 165 175 181 207 241 254 267 270 254 257 268 276 278 285 287 291 306 309 312 312 314 314 315 300 289 282 266 262 263 262 266 254 232 218 200 209 250
151 150 157 166 171 176 185 187 187 203 224 231 237 240 251 262 267 276 285 284 285 290 301 304 304 304 303 302 304 299 293 289 277 267 263 261 261 259 245 226 218 205 214
166 172 178 182 183 189 193 197 204 213 229 234 242 253 255 258 262 264 267 265 265 272 276 279 284 288 290 291 292 291 293 289 287 283 270 261 258 255 251 234 222 221 208
179 183 187 193 204 212 217 219 224 231 236 238 243 249 254 259 260 260 261 258 258 259 258 260 265 270 275 275 277 281 287 280 279 277 272 266 264 254 246 237 229 225 218
185 191 203 219 231 234 236 235 238 240 240 242 252 264 268 266 263 262 261 259 257 258 257 256 257 260 262 263 264 264 269 268 266 266 264 261 257 255 247 237 232 228 230
189 197 223 243 252 250 245 244 250 244 243 251 260 268 270 267 267 269 270 268 264 261 261 257 254 254 256 256 257 258 261 263 264 262 259 255 247 245 244 239 232 225 225
183 198 215 239 256 262 259 256 254 250 250 259 266 267 271 273 274 277 277 276 272 273 264 261 260 256 256 258 253 249 256 257 261 262 258 255 257 253 244 237 224 217 217
191 196 211 245 266 268 264 259 251 252 252 262 268 273 281 283 283 283 284 283 279 275 270 265 264 263 268 265 259 253 248 245 248 255 257 261 266 263 255 246 231 213 210
199 212 239 254 264 267 257 251 249 253 261 268 273 280 285 288 288 293 295 288 285 280 276 271 267 266 265 262 260 260 253 243 243 244 248 261 262 258 247 246 240 227 217
207 232 248 259 266 262 260 256 256 265 274 279 283 286 289 292 293 292 290 287 283 282 279 276 271 269 270 265 259 258 256 247 243 240 237 239 246 249 240 238 237 225 217
207 222 233 242 259 272 266 263 275 282 287 288 289 289 293 297 298 298 296 293 291 289 282 277 274 271 273 269 265 260 254 248 246 243 238 233 235 237 230 224 226 223 221
205 216 232 248 278 280 270 273 284 292 290 288 289 289 292 296 298 297 296 294 291 288 286 283 278 272 273 272 269 263 250 249 249 244 240 236 230 228 221 215 211 212 207
198 194 207 259 270 273 275 291 296 293 287 290 293 295 296 296 296 296 296 296 295 293 289 287 285 280 275 278 275 271 249 243 245 241 237 233 225 222 218 209 206 207 191
188 190 213 267 281 282 301 305 295 286 291 299 303 302 300 304 311 303 302 298 295 295 293 291 293 288 284 284 285 282 266 245 237 240 236 230 222 221 216 208 206 199 183
192 198 201 258 294 271 184 287 284 291 303 311 309 305 305 304 301 300 301 303 298 296 294 291 291 293 293 297 303 302 293 269 238 237 232 226 219 212 208 204 190 179 177
193 187 181 208 240 242 252 261 281 299 312 311 308 307 310 309 307 303 297 297 297 297 292 288 287 288 292 299 313 313 308 293 254 242 235 221 200 182 173 171 174 176 182
187 177 180 200 225 239 256 269 282 302 309 307 305 307 307 306 309 306 298 293 285 278 273 276 269 273 284 281 290 301 303 296 268 224 184 160 153 150 151 147 154 169 173
175 175 182 197 221 235 253 269 266 281 304 308 309 309 310 310 309 310 311 300 288 284 267 250 243 250 254 279 290 298 303 304 280 211 184 176 169 171 176 174 172 180 185
Height
1534 1534 1534 1534 1533 1533 1532 1532 1531 1530 1529 1527 1526 1525 1523 1521 1519 1517 1515 1514 1513 1511 1510 1508 1507 1505 1503 1502 1501 1500 1499 1499 1499 1499 1498 1497 1497 1496 1496 1497 1499 1501 1503
1533 1533 1533 1533 1532 1531 1530 1529 1528 1527 1526 1524 1523 1521 1520 1518 1515 1513 1512 1510 1509 1508 1506 1505 1503 1502 1500 1499 1497 1496 1495 1495 1496 1496 1496 1494 1494 1492 1492 1493 1494 1496 1498
1531 1531 1531 1531 1530 1529 1528 1527 1526 1524 1523 1521 1520 1518 1516 1514 1511 1509 1507 1506 1505 1504 1502 1501 1500 1498 1497 1496 1494 1493 1492 1492 1492 1493 1494 1493 1491 1490 1489 1489 1489 1491 1492
1529 1529 1529 1528 1528 1527 1526 1525 1524 1522 1521 1519 1517 1515 1512 1510 1507 1505 1503 1501 1500 1499 1498 1497 1495 1494 1493 1493 1491 1490 1489 1488 1488 1489 1490 1490 1490 1490 1487 1486 1486 1487 1488
1527 1526 1526 1526 1526 1526 1525 1524 1522 1520 1518 1516 1514 1511 1509 1507 1504 1502 1499 1498 1496 1495 1494 1492 1491 1490 1489 1489 1488 1488 1486 1485 1485 1485 1485 1486 1486 1487 1486 1485 1484 1484 1485
1525 1525 1526 1526 1526 1525 1524 1522 1520 1518 1516 1514 1511 1509 1506 1504 1501 1498 1496 1494 1493 1492 1490 1489 1487 1486 1485 1485 1484 1484 1483 1482 1482 1481 1481 1481 1482 1483 1483 1483 1482 1482 1483
1524 1525 1525 1525 1524 1523 1522 1520 1518 1516 1513 1511 1509 1506 1503 1501 1498 1495 1493 1491 1488 1487 1485 1484 1482 1482 1481 1480 1480 1479 1479 1479 1478 1478 1477 1477 1478 1479 1480 1480 1479 1479 1480
1523 1524 1524 1523 1522 1521 1519 1517 1515 1513 1511 1508 1505 1503 1500 1497 1494 1492 1489 1486 1484 1482 1480 1479 1478 1477 1476 1475 1475 1474 1474 1474 1474 1474 1473 1473 1473 1474 1475 1476 1476 1476 1476
1522 1522 1522 1521 1519 1518 1516 1514 1512 1510 1507 1504 1502 1499 1496 1493 1491 1488 1485 1482 1480 1477 1476 1474 1473 1472 1471 1470 1469 1468 1468 1468 1468 1468 1469 1469 1469 1469 1470 1471 1472 1474 1473
1521 1520 1519 1518 1516 1515 1513 1511 1508 1506 1503 1501 1498 1495 1492 1489 1486 1483 1481 1478 1476 1474 1472 1470 1468 1466 1465 1464 1463 1462 1462 1462 1462 1462 1463 1463 1464 1464 1465 1466 1467 1469 1470
1518 1518 1516 1515 1513 1512 1510 1507 1505 1502 1500 1497 1494 1491 1488 1485 1482 1479 1476 1474 1472 1470 1468 1465 1463 1462 1460 1459 1457 1456 1455 1455 1455 1455 1456 1457 1458 1459 1460 1461 1462 1463 1465
1515 1515 1513 1512 1510 1508 1506 1503 1501 1498 1495 1493 1490 1487 1484 1480 1477 1475 1472 1470 1467 1465 1463 1461 1459 1457 1455 1453 1452 1450 1449 1448 1448 1448 1449 1450 1451 1452 1454 1455 1456 1458 1460
1512 1512 1511 1509 1507 1504 1501 1499 1496 1494 1491 1488 1485 1482 1479 1476 1473 1470 1467 1465 1462 1460 1458 1456 1453 1451 1450 1448 1446 1444 1443 1441 1441 1441 1441 1442 1444 1445 1447 1449 1451 1452 1454
1509 1509 1507 1505 1503 1500 1497 1494 1492 1489 1487 1484 1481 1478 1474 1471 1468 1465 1462 1459 1457 1454 1452 1449 1447 1445 1443 1441 1439 1437 1436 1435 1434 1433 1433 1434 1436 1438 1440 1442 1444 1446 1448
1507 1505 1503 1501 1499 1496 1493 1490 1488 1485 1482 1479 1476 1473 1469 1466 1463 1459 1456 1453 1450 1447 1445 1442 1440 1438 1436 1433 1431 1430 1428 1427 1426 1426 1426 1426 1427 1429 1432 1435 1437 1440 1442
1503 1502 1499 1497 1494 1491 1489 1486 1483 1481 1478 1475 1471 1468 1464 1461 1457 1453 1450 1446 1443 1440 1437 1435 1432 1430 1428 1426 1424 1422 1421 1419 1419 1418 1418 1418 1419 1421 1423 1427 1430 1433 1435
1499 1498 1495 1493 1490 1487 1484 1482 1479 1476 1473 1470 1466 1463 1459 1455 1451 1447 1443 1439 1436 1432 1429 1427 1424 1422 1420 1418 1416 1414 1412 1411 1409 1409 1409 1409 1410 1412 1415 1418 1422 1425 1428
1495 1494 1491 1489 1486 1483 1480 1478 1475 1472 1468 1465 1461 1458 1454 1449 1445 1441 1436 1432 1429 1425 1422 1419 1417 1414 1412 1410 1407 1405 1403 1401 1400 1399 1399 1400 1401 1403 1406 1410 1413 1416 1420
1491 1490 1488 1485 1483 1480 1476 1473 1470 1467 1463 1460 1456 1452 1448 1443 1439 1434 1430 1426 1422 1419 1415 1412 1409 1407 1404 1401 1398 1396 1393 1391 1390 1389 1389 1390 1391 1394 1398 1401 1404 1408 1412
1488 1486 1484 1482 1479 1476 1472 1469 1466 1462 1458 1454 1450 1446 1442 1437 1433 1428 1424 1420 1416 1413 1409 1406 1403 1400 1396 1393 1390 1387 1384 1381 1380 1380 1380 1381 1383 1385 1389 1392 1396 1400 1405
1484 1483 1480 1478 1475 1472 1468 1465 1461 1457 1453 1449 1445 1441 1437 1432 1427 1423 1419 1415 1411 1407 1404 1400 1397 1393 1389 1385 1382 1379 1376 1374 1372 1371 1371 1373 1375 1378 1380 1384 1388 1393 1399
1480 1479 1476 1474 1471 1467 1464 1460 1456 1452 1447 1443 1439 1435 1431 1427 1422 1418 1414 1410 1407 1402 1399 1395 1391 1387 1383 1379 1375 1372 1369 1367 1365 1365 1365 1366 1368 1371 1373 1377 1382 1388 1393
1476 1474 1472 1469 1466 1463 1459 1455 1451 1446 1442 1438 1434 1430 1425 1421 1418 1414 1409 1406 1402 1398 1394 1390 1386 1382 1378 1374 1371 1368 1365 1362 1361 1360 1360 1361 1363 1365 1368 1372 1377 1382 1387
1470 1469 1467 1465 1462 1458 1455 1450 1446 1441 1437 1433 1429 1425 1421 1417 1413 1410 1406 1402 1398 1394 1390 1386 1381 1377 1374 1370 1367 1365 1362 1360 1358 1357 1357 1358 1359 1362 1365 1369 1373 1378 1383
1465 1464 1462 1460 1457 1454 1450 1445 1441 1437 1433 1429 1425 1421 1417 1413 1409 1405 1402 1398 1394 1391 1386 1382 1378 1374 1370 1367 1365 1363 1360 1359 1357 1356 1356 1357 1359 1361 1363 1367 1371 1376 1380
1460 1459 1457 1455 1453 1449 1445 1441 1437 1433 1429 1424 1420 1417 1414 1410 1406 1402 1397 1394 1391 1387 1383 1379 1375 1371 1368 1364 1362 1361 1360 1358 1358 1357 1357 1357 1359 1361 1364 1367 1371 1375 1379